Time,TemperatureF,DewpointF,PressureIn,WindDirection,WindDirectionDegrees,WindSpeedMPH,WindSpeedGustMPH,Humidity,HourlyPrecipIn,Conditions,Clouds,dailyrainin,SoftwareType,DateUTC
2013-05-18 00:01:00,67.8,37.7,27.20,SE,127,4.9,5.4,33,0.00,,---,0.00,VWS V14.01,2013-05-18 05:01:00,
2013-05-18 00:07:00,67.6,37.5,27.20,SE,132,5.8,6.3,33,0.00,,---,0.00,VWS V14.01,2013-05-18 05:07:00,
2013-05-18 00:12:00,67.5,37.4,27.20,SE,134,5.4,6.3,33,0.00,,---,0.00,VWS V14.01,2013-05-18 05:12:00,
2013-05-18 00:17:00,67.3,37.2,27.20,SE,127,5.8,6.3,33,0.00,,---,0.00,VWS V14.01,2013-05-18 05:17:00,
2013-05-18 00:22:00,67.3,37.2,27.20,SE,131,5.8,6.3,33,0.00,,---,0.00,VWS V14.01,2013-05-18 05:22:00,
2013-05-18 00:27:00,67.1,37.1,27.20,SE,129,5.8,7.6,33,0.00,,---,0.00,VWS V14.01,2013-05-18 05:27:00,
2013-05-18 00:32:00,66.9,36.9,27.20,SE,132,6.3,6.3,33,0.00,,---,0.00,VWS V14.01,2013-05-18 05:32:00,
2013-05-18 00:37:00,66.9,36.9,27.20,SE,135,6.3,6.3,33,0.00,,---,0.00,VWS V14.01,2013-05-18 05:37:00,
2013-05-18 00:42:00,66.7,36.8,27.20,SE,135,6.7,6.7,33,0.00,,---,0.00,VWS V14.01,2013-05-18 05:42:00,
2013-05-18 00:47:00,66.6,36.6,27.20,SE,138,5.8,5.8,33,0.00,,---,0.00,VWS V14.01,2013-05-18 05:47:00,
2013-05-18 00:52:00,66.6,36.6,27.20,SE,135,5.4,6.7,33,0.00,,---,0.00,VWS V14.01,2013-05-18 05:52:00,
2013-05-18 00:57:00,66.4,36.4,27.20,SE,130,5.8,6.3,33,0.00,,---,0.00,VWS V14.01,2013-05-18 05:57:00,
2013-05-18 01:02:00,66.4,36.4,27.20,SE,130,4.9,4.9,33,0.00,,---,0.00,VWS V14.01,2013-05-18 06:02:00,
2013-05-18 01:07:00,66.4,36.4,27.20,SE,129,5.8,5.8,33,0.00,,---,0.00,VWS V14.01,2013-05-18 06:07:00,
2013-05-18 01:12:00,66.4,36.4,27.20,SE,132,5.8,5.8,33,0.00,,---,0.00,VWS V14.01,2013-05-18 06:12:00,
2013-05-18 01:18:00,66.4,36.4,27.20,SE,125,5.4,5.4,33,0.00,,---,0.00,VWS V14.01,2013-05-18 06:18:00,
2013-05-18 01:23:00,66.4,36.4,27.20,SE,124,6.7,7.2,33,0.00,,---,0.00,VWS V14.01,2013-05-18 06:23:00,
2013-05-18 01:28:00,66.4,36.4,27.20,SE,131,7.6,7.6,33,0.00,,---,0.00,VWS V14.01,2013-05-18 06:28:00,
2013-05-18 01:33:00,66.4,36.4,27.17,SE,124,7.2,7.6,33,0.00,,---,0.00,VWS V14.01,2013-05-18 06:33:00,
2013-05-18 01:38:00,66.4,36.4,27.17,SE,127,6.7,6.7,33,0.00,,---,0.00,VWS V14.01,2013-05-18 06:38:00,
2013-05-18 01:43:00,66.4,36.4,27.17,ESE,121,7.6,8.3,33,0.00,,---,0.00,VWS V14.01,2013-05-18 06:43:00,
2013-05-18 01:48:00,66.4,36.4,27.17,SE,132,7.6,7.6,33,0.00,,---,0.00,VWS V14.01,2013-05-18 06:48:00,
2013-05-18 01:53:00,66.4,36.4,27.17,SE,131,8.1,8.1,33,0.00,,---,0.00,VWS V14.01,2013-05-18 06:53:00,
2013-05-18 01:58:00,66.4,36.4,27.17,SE,130,8.3,8.3,33,0.00,,---,0.00,VWS V14.01,2013-05-18 06:58:00,
2013-05-18 02:03:00,66.4,36.4,27.17,SE,125,8.1,8.1,33,0.00,,---,0.00,VWS V14.01,2013-05-18 07:03:00,
2013-05-18 02:08:00,66.4,36.4,27.17,SE,124,6.3,6.7,33,0.00,,---,0.00,VWS V14.01,2013-05-18 07:08:00,
2013-05-18 02:13:00,65.7,35.8,27.17,SSE,148,8.3,8.3,33,0.00,,---,0.00,VWS V14.01,2013-05-18 07:13:00,
2013-05-18 02:18:00,65.7,35.8,27.17,SE,130,8.1,8.1,33,0.00,,---,0.00,VWS V14.01,2013-05-18 07:18:00,
2013-05-18 02:23:00,65.7,35.8,27.17,SE,138,7.6,7.6,33,0.00,,---,0.00,VWS V14.01,2013-05-18 07:23:00,
2013-05-18 02:28:00,65.7,35.8,27.17,SE,131,6.7,7.6,33,0.00,,---,0.00,VWS V14.01,2013-05-18 07:28:00,
2013-05-18 02:33:00,65.7,35.8,27.17,SE,129,7.6,7.6,33,0.00,,---,0.00,VWS V14.01,2013-05-18 07:33:00,
2013-05-18 02:38:00,65.7,35.8,27.17,SE,131,7.6,8.1,33,0.00,,---,0.00,VWS V14.01,2013-05-18 07:38:00,
2013-05-18 02:43:00,65.7,35.8,27.17,SE,135,7.6,8.1,33,0.00,,---,0.00,VWS V14.01,2013-05-18 07:43:00,
2013-05-18 02:48:00,65.7,35.8,27.17,SE,133,8.3,8.7,33,0.00,,---,0.00,VWS V14.01,2013-05-18 07:48:00,
2013-05-18 02:53:00,65.7,35.8,27.17,SE,135,8.3,8.3,33,0.00,,---,0.00,VWS V14.01,2013-05-18 07:53:00,
2013-05-18 02:58:00,65.7,35.8,27.17,SE,130,8.3,8.3,33,0.00,,---,0.00,VWS V14.01,2013-05-18 07:58:00,
2013-05-18 03:03:00,66.4,36.4,27.17,SE,125,7.6,8.7,33,0.00,,---,0.00,VWS V14.01,2013-05-18 08:03:00,
2013-05-18 03:08:00,66.4,36.4,27.17,SE,133,8.7,8.7,33,0.00,,---,0.00,VWS V14.01,2013-05-18 08:08:00,
2013-05-18 03:13:00,66.4,36.4,27.17,SE,132,8.7,8.7,33,0.00,,---,0.00,VWS V14.01,2013-05-18 08:13:00,
2013-05-18 03:18:00,66.4,36.4,27.17,SE,135,9.6,10.1,33,0.00,,---,0.00,VWS V14.01,2013-05-18 08:18:00,
2013-05-18 03:23:00,66.4,36.4,27.17,SE,137,10.5,10.5,33,0.00,,---,0.00,VWS V14.01,2013-05-18 08:23:00,
2013-05-18 03:28:00,66.9,36.9,27.17,SE,129,8.3,8.7,33,0.00,,---,0.00,VWS V14.01,2013-05-18 08:28:00,
2013-05-18 03:33:00,66.9,36.9,27.17,SE,141,10.5,10.5,33,0.00,,---,0.00,VWS V14.01,2013-05-18 08:33:00,
2013-05-18 03:38:00,66.9,36.9,27.17,SE,136,8.7,8.7,33,0.00,,---,0.00,VWS V14.01,2013-05-18 08:38:00,
2013-05-18 03:43:00,66.9,36.9,27.17,SE,134,8.3,8.3,33,0.00,,---,0.00,VWS V14.01,2013-05-18 08:43:00,
2013-05-18 03:48:00,66.9,36.9,27.14,SE,133,8.1,8.7,33,0.00,,---,0.00,VWS V14.01,2013-05-18 08:48:00,
2013-05-18 03:53:00,66.9,36.9,27.14,SE,134,8.3,8.3,33,0.00,,---,0.00,VWS V14.01,2013-05-18 08:53:00,
2013-05-18 03:58:00,66.9,36.9,27.14,SE,139,9.2,9.2,33,0.00,,---,0.00,VWS V14.01,2013-05-18 08:58:00,
2013-05-18 04:03:00,67.1,37.1,27.17,SE,125,7.6,8.3,33,0.00,,---,0.00,VWS V14.01,2013-05-18 09:03:00,
2013-05-18 04:08:00,67.1,37.1,27.17,SE,135,8.3,10.1,33,0.00,,---,0.00,VWS V14.01,2013-05-18 09:08:00,
2013-05-18 04:13:00,67.1,37.1,27.17,SE,133,8.7,11.0,33,0.00,,---,0.00,VWS V14.01,2013-05-18 09:13:00,
2013-05-18 04:18:00,66.9,36.9,27.14,SE,128,8.1,8.1,33,0.00,,---,0.00,VWS V14.01,2013-05-18 09:18:00,
2013-05-18 04:23:00,66.7,36.8,27.14,SE,127,5.4,5.4,33,0.00,,---,0.00,VWS V14.01,2013-05-18 09:23:00,
2013-05-18 04:28:00,66.7,36.8,27.14,ESE,123,4.9,4.9,33,0.00,,---,0.00,VWS V14.01,2013-05-18 09:28:00,
2013-05-18 04:33:00,66.7,36.8,27.17,ESE,116,4.0,5.8,33,0.00,,---,0.00,VWS V14.01,2013-05-18 09:33:00,
2013-05-18 04:38:00,66.7,36.8,27.17,SE,128,5.4,5.4,33,0.00,,---,0.00,VWS V14.01,2013-05-18 09:38:00,
2013-05-18 04:43:00,66.7,36.8,27.17,ESE,118,4.9,4.9,33,0.00,,---,0.00,VWS V14.01,2013-05-18 09:43:00,
2013-05-18 04:48:00,66.6,36.6,27.17,ESE,111,4.0,4.9,33,0.00,,---,0.00,VWS V14.01,2013-05-18 09:48:00,
2013-05-18 04:53:00,66.6,36.6,27.17,ESE,122,4.0,4.9,33,0.00,,---,0.00,VWS V14.01,2013-05-18 09:53:00,
2013-05-18 04:58:00,66.6,36.6,27.17,ESE,117,3.6,3.6,33,0.00,,---,0.00,VWS V14.01,2013-05-18 09:58:00,
2013-05-18 05:03:00,66.4,36.4,27.14,ESE,114,4.0,4.0,33,0.00,,---,0.00,VWS V14.01,2013-05-18 10:03:00,
2013-05-18 05:08:00,66.4,36.4,27.14,ESE,108,3.6,3.6,33,0.00,,---,0.00,VWS V14.01,2013-05-18 10:08:00,
2013-05-18 05:13:00,66.6,36.6,27.14,ESE,117,4.0,4.0,33,0.00,,---,0.00,VWS V14.01,2013-05-18 10:13:00,
2013-05-18 05:18:00,66.6,36.6,27.14,ESE,123,4.0,4.0,33,0.00,,---,0.00,VWS V14.01,2013-05-18 10:18:00,
2013-05-18 05:23:00,66.6,36.6,27.14,SE,131,4.0,4.0,33,0.00,,---,0.00,VWS V14.01,2013-05-18 10:23:00,
2013-05-18 05:28:00,66.4,36.4,27.14,SE,124,3.6,3.6,33,0.00,,---,0.00,VWS V14.01,2013-05-18 10:28:00,
2013-05-18 05:33:00,66.4,36.4,27.14,ESE,112,4.0,5.4,33,0.00,,---,0.00,VWS V14.01,2013-05-18 10:33:00,
2013-05-18 05:38:00,66.2,36.3,27.14,East,93,4.0,4.0,33,0.00,,---,0.00,VWS V14.01,2013-05-18 10:38:00,
2013-05-18 05:43:00,66.0,36.1,27.14,East,92,4.0,4.0,33,0.00,,---,0.00,VWS V14.01,2013-05-18 10:43:00,
2013-05-18 05:48:00,65.8,36.0,27.14,ESE,102,3.1,3.1,33,0.00,,---,0.00,VWS V14.01,2013-05-18 10:48:00,
2013-05-18 05:53:00,65.8,36.0,27.14,ESE,109,3.1,4.0,33,0.00,,---,0.00,VWS V14.01,2013-05-18 10:53:00,
2013-05-18 05:58:00,66.0,36.1,27.14,ESE,110,4.5,4.5,33,0.00,,---,0.00,VWS V14.01,2013-05-18 10:58:00,
2013-05-18 06:03:00,66.0,36.1,27.14,ESE,111,3.6,3.6,33,0.00,,---,0.00,VWS V14.01,2013-05-18 11:03:00,
2013-05-18 06:08:00,65.8,36.0,27.14,ESE,107,3.6,4.9,33,0.00,,---,0.00,VWS V14.01,2013-05-18 11:08:00,
2013-05-18 06:13:00,65.7,36.6,27.14,East,99,3.6,3.6,34,0.00,,---,0.00,VWS V14.01,2013-05-18 11:13:00,
2013-05-18 06:18:00,65.7,36.6,27.14,East,101,4.0,4.9,34,0.00,,---,0.00,VWS V14.01,2013-05-18 11:18:00,
2013-05-18 06:23:00,65.5,36.4,27.14,ESE,108,4.9,4.9,34,0.00,,---,0.00,VWS V14.01,2013-05-18 11:23:00,
2013-05-18 06:28:00,65.5,36.4,27.14,ESE,113,4.5,5.4,34,0.00,,---,0.00,VWS V14.01,2013-05-18 11:28:00,
2013-05-18 06:33:00,65.7,36.6,27.14,ESE,106,4.0,4.5,34,0.00,,---,0.00,VWS V14.01,2013-05-18 11:33:00,
2013-05-18 06:38:00,65.7,36.6,27.14,East,83,4.0,4.5,34,0.00,,---,0.00,VWS V14.01,2013-05-18 11:38:00,
2013-05-18 06:43:00,65.7,36.6,27.14,ESE,105,4.0,4.0,34,0.00,,---,0.00,VWS V14.01,2013-05-18 11:43:00,
2013-05-18 06:48:00,65.7,36.6,27.14,ESE,110,4.5,4.5,34,0.00,,---,0.00,VWS V14.01,2013-05-18 11:48:00,
2013-05-18 06:53:00,65.7,36.6,27.14,ESE,107,4.9,5.4,34,0.00,,---,0.00,VWS V14.01,2013-05-18 11:53:00,
2013-05-18 06:58:00,65.7,36.6,27.17,ESE,104,4.0,4.0,34,0.00,,---,0.00,VWS V14.01,2013-05-18 11:58:00,
2013-05-18 07:03:00,65.7,36.6,27.17,East,89,4.0,4.0,34,0.00,,---,0.00,VWS V14.01,2013-05-18 12:03:00,
2013-05-18 07:08:00,65.7,36.6,27.17,East,98,3.6,3.6,34,0.00,,---,0.00,VWS V14.01,2013-05-18 12:08:00,
2013-05-18 07:13:00,65.7,36.6,27.14,East,85,3.6,3.6,34,0.00,,---,0.00,VWS V14.01,2013-05-18 12:13:00,
2013-05-18 07:18:00,65.5,36.4,27.14,East,92,4.0,4.0,34,0.00,,---,0.00,VWS V14.01,2013-05-18 12:18:00,
2013-05-18 07:23:00,65.5,36.4,27.14,East,84,3.6,3.6,34,0.00,,---,0.00,VWS V14.01,2013-05-18 12:23:00,
2013-05-18 07:28:00,65.5,36.4,27.14,East,86,3.1,3.1,34,0.00,,---,0.00,VWS V14.01,2013-05-18 12:28:00,
2013-05-18 07:33:00,65.5,36.4,27.17,ESE,120,3.1,3.1,34,0.00,,---,0.00,VWS V14.01,2013-05-18 12:33:00,
2013-05-18 07:38:00,65.7,36.6,27.17,East,96,4.0,4.0,34,0.00,,---,0.00,VWS V14.01,2013-05-18 12:38:00,
2013-05-18 07:43:00,65.7,36.6,27.17,ESE,108,3.1,4.0,34,0.00,,---,0.00,VWS V14.01,2013-05-18 12:43:00,
2013-05-18 07:48:00,65.8,36.7,27.17,ESE,119,4.0,4.9,34,0.00,,---,0.00,VWS V14.01,2013-05-18 12:48:00,
2013-05-18 07:53:00,66.0,36.9,27.17,ESE,116,4.0,4.0,34,0.00,,---,0.00,VWS V14.01,2013-05-18 12:53:00,
2013-05-18 07:58:00,66.0,36.9,27.17,ESE,109,4.5,4.5,34,0.00,,---,0.00,VWS V14.01,2013-05-18 12:58:00,
2013-05-18 08:03:00,66.0,36.9,27.17,ESE,113,4.0,4.0,34,0.00,,---,0.00,VWS V14.01,2013-05-18 13:03:00,
2013-05-18 08:08:00,66.0,36.9,27.17,ESE,102,4.5,4.9,34,0.00,,---,0.00,VWS V14.01,2013-05-18 13:08:00,
2013-05-18 08:13:00,66.0,36.9,27.17,East,92,5.4,6.3,34,0.00,,---,0.00,VWS V14.01,2013-05-18 13:13:00,
2013-05-18 08:18:00,66.2,36.3,27.17,ESE,105,6.3,6.3,33,0.00,,---,0.00,VWS V14.01,2013-05-18 13:18:00,
2013-05-18 08:23:00,66.2,36.3,27.17,ESE,103,5.8,6.3,33,0.00,,---,0.00,VWS V14.01,2013-05-18 13:23:00,
2013-05-18 08:28:00,66.4,36.4,27.17,East,97,5.4,5.4,33,0.00,,---,0.00,VWS V14.01,2013-05-18 13:28:00,
2013-05-18 08:33:00,66.6,36.6,27.17,ESE,119,5.4,5.4,33,0.00,,---,0.00,VWS V14.01,2013-05-18 13:33:00,
2013-05-18 08:38:00,66.6,36.6,27.17,East,100,5.8,5.8,33,0.00,,---,0.00,VWS V14.01,2013-05-18 13:38:00,
2013-05-18 08:43:00,66.6,36.6,27.17,East,97,5.8,5.8,33,0.00,,---,0.00,VWS V14.01,2013-05-18 13:43:00,
2013-05-18 08:48:00,66.6,36.6,27.17,ESE,110,6.3,6.3,33,0.00,,---,0.00,VWS V14.01,2013-05-18 13:48:00,
2013-05-18 08:53:00,66.7,36.8,27.17,East,93,6.3,6.3,33,0.00,,---,0.00,VWS V14.01,2013-05-18 13:53:00,
2013-05-18 08:58:00,66.7,36.8,27.14,East,97,5.4,6.3,33,0.00,,---,0.00,VWS V14.01,2013-05-18 13:58:00,
2013-05-18 09:04:00,67.1,37.1,27.14,ESE,108,4.5,6.3,33,0.00,,---,0.00,VWS V14.01,2013-05-18 14:04:00,
2013-05-18 09:09:00,67.1,37.1,27.14,ESE,115,5.8,5.8,33,0.00,,---,0.00,VWS V14.01,2013-05-18 14:09:00,
2013-05-18 09:14:00,66.9,37.7,27.17,ESE,114,5.4,5.4,34,0.00,,---,0.00,VWS V14.01,2013-05-18 14:14:00,
2013-05-18 09:19:00,66.7,36.8,27.17,East,96,5.4,6.3,33,0.00,,---,0.00,VWS V14.01,2013-05-18 14:19:00,
2013-05-18 09:24:00,66.7,37.5,27.17,East,91,5.4,5.4,34,0.00,,---,0.00,VWS V14.01,2013-05-18 14:24:00,
2013-05-18 09:29:00,66.9,37.7,27.17,ESE,112,4.9,4.9,34,0.00,,---,0.00,VWS V14.01,2013-05-18 14:29:00,
2013-05-18 09:34:00,67.1,37.8,27.17,ESE,115,5.4,5.4,34,0.00,,---,0.00,VWS V14.01,2013-05-18 14:34:00,
2013-05-18 09:39:00,67.3,38.0,27.17,ESE,117,5.4,5.4,34,0.00,,---,0.00,VWS V14.01,2013-05-18 14:39:00,
2013-05-18 09:44:00,67.3,37.2,27.17,ESE,116,5.8,5.8,33,0.00,,---,0.00,VWS V14.01,2013-05-18 14:44:00,
2013-05-18 09:49:00,67.5,37.4,27.17,ESE,110,4.9,4.9,33,0.00,,---,0.00,VWS V14.01,2013-05-18 14:49:00,
2013-05-18 09:54:00,67.5,37.4,27.17,East,92,5.8,5.8,33,0.00,,---,0.00,VWS V14.01,2013-05-18 14:54:00,
2013-05-18 09:59:00,67.5,37.4,27.17,ESE,108,4.0,4.0,33,0.00,,---,0.00,VWS V14.01,2013-05-18 14:59:00,
2013-05-18 10:04:00,68.0,37.8,27.17,ESE,110,3.6,4.0,33,0.00,,---,0.00,VWS V14.01,2013-05-18 15:04:00,
2013-05-18 10:09:00,68.2,38.0,27.17,ESE,115,3.6,4.9,33,0.00,,---,0.00,VWS V14.01,2013-05-18 15:09:00,
2013-05-18 10:14:00,68.5,38.3,27.17,ESE,103,4.0,4.0,33,0.00,,---,0.00,VWS V14.01,2013-05-18 15:14:00,
2013-05-18 10:19:00,69.1,38.8,27.17,ESE,110,3.6,3.6,33,0.00,,---,0.00,VWS V14.01,2013-05-18 15:19:00,
2013-05-18 10:24:00,69.6,39.3,27.17,SE,126,4.9,4.9,33,0.00,,---,0.00,VWS V14.01,2013-05-18 15:24:00,
2013-05-18 10:29:00,70.3,39.1,27.14,SE,124,5.4,5.8,32,0.00,,---,0.00,VWS V14.01,2013-05-18 15:29:00,
2013-05-18 10:35:00,71.8,40.4,27.14,ESE,116,6.3,6.3,32,0.00,,---,0.00,VWS V14.01,2013-05-18 15:35:00,
2013-05-18 10:40:00,72.5,41.0,27.14,ESE,119,5.4,5.8,32,0.00,,---,0.00,VWS V14.01,2013-05-18 15:40:00,
2013-05-18 10:45:00,73.4,41.0,27.14,ESE,123,5.8,5.8,31,0.00,,---,0.00,VWS V14.01,2013-05-18 15:45:00,
2013-05-18 10:51:00,73.4,41.0,27.14,ESE,116,5.4,6.3,31,0.00,,---,0.00,VWS V14.01,2013-05-18 15:51:00,
2013-05-18 10:56:00,72.7,41.2,27.14,SE,131,5.8,5.8,32,0.00,,---,0.00,VWS V14.01,2013-05-18 15:56:00,
2013-05-18 11:01:00,71.8,40.4,27.14,SE,133,6.3,6.3,32,0.00,,---,0.00,VWS V14.01,2013-05-18 16:01:00,
2013-05-18 11:06:00,72.0,40.5,27.14,SE,126,4.0,4.0,32,0.00,,---,0.00,VWS V14.01,2013-05-18 16:06:00,
2013-05-18 11:11:00,72.1,40.7,27.14,ESE,123,4.9,4.9,32,0.00,,---,0.00,VWS V14.01,2013-05-18 16:11:00,
2013-05-18 11:16:00,73.2,41.6,27.14,East,96,4.0,4.0,32,0.00,,---,0.00,VWS V14.01,2013-05-18 16:16:00,
2013-05-18 11:21:00,73.6,41.1,27.14,ESE,116,4.0,4.0,31,0.00,,---,0.00,VWS V14.01,2013-05-18 16:21:00,
2013-05-18 11:26:00,73.9,41.4,27.14,ESE,120,4.0,4.0,31,0.00,,---,0.00,VWS V14.01,2013-05-18 16:26:00,
2013-05-18 11:31:00,73.8,41.3,27.14,ESE,121,4.9,5.4,31,0.00,,---,0.00,VWS V14.01,2013-05-18 16:31:00,
2013-05-18 11:36:00,75.2,42.5,27.14,SE,136,5.8,5.8,31,0.00,,---,0.00,VWS V14.01,2013-05-18 16:36:00,
2013-05-18 11:41:00,75.4,42.7,27.14,ESE,115,3.6,3.6,31,0.00,,---,0.00,VWS V14.01,2013-05-18 16:41:00,
2013-05-18 11:46:00,77.0,44.1,27.14,SE,125,5.8,5.8,31,0.00,,---,0.00,VWS V14.01,2013-05-18 16:46:00,
2013-05-18 11:51:00,79.3,45.2,27.14,SE,128,5.8,5.8,30,0.00,,---,0.00,VWS V14.01,2013-05-18 16:51:00,
2013-05-18 11:56:00,80.6,46.3,27.14,ESE,123,5.8,5.8,30,0.00,,---,0.00,VWS V14.01,2013-05-18 16:56:00,
2013-05-18 12:02:00,78.8,44.8,27.14,SE,124,3.6,5.8,30,0.00,,---,0.00,VWS V14.01,2013-05-18 17:02:00,
2013-05-18 12:07:00,79.3,45.2,27.14,ESE,106,4.0,4.9,30,0.00,,---,0.00,VWS V14.01,2013-05-18 17:07:00,
2013-05-18 12:12:00,79.2,45.1,27.14,SE,130,5.8,6.3,30,0.00,,---,0.00,VWS V14.01,2013-05-18 17:12:00,
2013-05-18 12:17:00,81.0,46.6,27.14,SE,128,3.6,4.0,30,0.00,,---,0.00,VWS V14.01,2013-05-18 17:17:00,
2013-05-18 12:22:00,81.5,47.1,27.14,SE,134,6.7,7.6,30,0.00,,---,0.00,VWS V14.01,2013-05-18 17:22:00,
2013-05-18 12:27:00,81.3,47.0,27.14,SE,130,5.4,5.4,30,0.00,,---,0.00,VWS V14.01,2013-05-18 17:27:00,
2013-05-18 12:32:00,79.9,45.7,27.14,SSE,155,6.3,6.3,30,0.00,,---,0.00,VWS V14.01,2013-05-18 17:32:00,
2013-05-18 12:37:00,79.3,45.2,27.14,ESE,118,5.4,5.4,30,0.00,,---,0.00,VWS V14.01,2013-05-18 17:37:00,
2013-05-18 12:42:00,78.6,45.5,27.14,SE,125,5.8,5.8,31,0.00,,---,0.00,VWS V14.01,2013-05-18 17:42:00,
2013-05-18 12:47:00,79.2,45.1,27.14,ESE,121,5.4,5.4,30,0.00,,---,0.00,VWS V14.01,2013-05-18 17:47:00,
2013-05-18 12:52:00,81.0,46.6,27.14,SE,130,7.6,7.6,30,0.00,,---,0.00,VWS V14.01,2013-05-18 17:52:00,
2013-05-18 12:57:00,81.1,46.8,27.14,SE,131,5.4,5.4,30,0.00,,---,0.00,VWS V14.01,2013-05-18 17:57:00,
2013-05-18 13:02:00,80.4,46.2,27.14,SE,134,8.7,9.2,30,0.00,,---,0.00,VWS V14.01,2013-05-18 18:02:00,
2013-05-18 13:07:00,79.7,45.6,27.14,ESE,121,5.8,6.3,30,0.00,,---,0.00,VWS V14.01,2013-05-18 18:07:00,
2013-05-18 13:12:00,80.4,46.2,27.14,SE,133,8.7,8.7,30,0.00,,---,0.00,VWS V14.01,2013-05-18 18:12:00,
2013-05-18 13:17:00,78.8,44.8,27.11,SE,134,8.1,8.1,30,0.00,,---,0.00,VWS V14.01,2013-05-18 18:17:00,
2013-05-18 13:22:00,79.0,44.9,27.11,SE,129,8.1,8.1,30,0.00,,---,0.00,VWS V14.01,2013-05-18 18:22:00,
2013-05-18 13:27:00,80.1,45.9,27.11,SE,133,7.6,7.6,30,0.00,,---,0.00,VWS V14.01,2013-05-18 18:27:00,
2013-05-18 13:32:00,80.4,46.2,27.14,SE,130,6.3,6.3,30,0.00,,---,0.00,VWS V14.01,2013-05-18 18:32:00,
2013-05-18 13:37:00,80.1,45.9,27.14,SE,139,11.0,11.0,30,0.00,,---,0.00,VWS V14.01,2013-05-18 18:37:00,
2013-05-18 13:42:00,81.9,47.4,27.14,SE,142,11.0,11.0,30,0.00,,---,0.00,VWS V14.01,2013-05-18 18:42:00,
2013-05-18 13:47:00,80.8,46.5,27.14,SE,127,8.3,8.3,30,0.00,,---,0.00,VWS V14.01,2013-05-18 18:47:00,
2013-05-18 13:52:00,79.5,45.4,27.14,SE,130,8.3,8.3,30,0.00,,---,0.00,VWS V14.01,2013-05-18 18:52:00,
2013-05-18 13:57:00,81.7,47.3,27.14,SE,128,8.7,10.1,30,0.00,,---,0.00,VWS V14.01,2013-05-18 18:57:00,
2013-05-18 14:02:00,81.7,47.3,27.11,SE,140,8.1,8.1,30,0.00,,---,0.00,VWS V14.01,2013-05-18 19:02:00,
2013-05-18 14:07:00,81.0,46.6,27.11,ESE,122,8.1,8.7,30,0.00,,---,0.00,VWS V14.01,2013-05-18 19:07:00,
2013-05-18 14:12:00,81.9,47.4,27.14,SSE,155,8.1,8.1,30,0.00,,---,0.00,VWS V14.01,2013-05-18 19:12:00,
2013-05-18 14:17:00,80.1,45.9,27.14,SE,128,8.1,8.1,30,0.00,,---,0.00,VWS V14.01,2013-05-18 19:17:00,
2013-05-18 14:22:00,80.2,46.0,27.14,SE,133,8.3,8.3,30,0.00,,---,0.00,VWS V14.01,2013-05-18 19:22:00,
2013-05-18 14:27:00,80.4,46.2,27.14,SE,137,8.7,8.7,30,0.00,,---,0.00,VWS V14.01,2013-05-18 19:27:00,
2013-05-18 14:32:00,81.1,46.8,27.14,ESE,117,5.4,7.6,30,0.00,,---,0.00,VWS V14.01,2013-05-18 19:32:00,
2013-05-18 14:37:00,83.3,47.8,27.14,SE,138,10.1,10.1,29,0.00,,---,0.00,VWS V14.01,2013-05-18 19:37:00,
2013-05-18 14:42:00,84.4,48.7,27.14,SE,124,8.3,8.3,29,0.00,,---,0.00,VWS V14.01,2013-05-18 19:42:00,
2013-05-18 14:47:00,82.4,47.0,27.11,SE,135,8.3,11.0,29,0.00,,---,0.00,VWS V14.01,2013-05-18 19:47:00,
2013-05-18 14:52:00,80.4,46.2,27.11,SE,132,10.5,10.5,30,0.00,,---,0.00,VWS V14.01,2013-05-18 19:52:00,
2013-05-18 14:57:00,80.1,45.9,27.11,SE,129,8.7,8.7,30,0.00,,---,0.00,VWS V14.01,2013-05-18 19:57:00,
2013-05-18 15:02:00,82.8,47.3,27.11,SE,135,7.6,7.6,29,0.00,,---,0.00,VWS V14.01,2013-05-18 20:02:00,
2013-05-18 15:07:00,82.8,47.3,27.11,ESE,110,8.3,10.1,29,0.00,,---,0.00,VWS V14.01,2013-05-18 20:07:00,
2013-05-18 15:12:00,82.2,47.7,27.11,SE,126,8.7,8.7,30,0.00,,---,0.00,VWS V14.01,2013-05-18 20:12:00,
2013-05-18 15:17:00,80.6,46.3,27.11,ESE,118,8.3,8.3,30,0.00,,---,0.00,VWS V14.01,2013-05-18 20:17:00,
2013-05-18 15:22:00,79.9,45.7,27.11,SE,126,8.7,8.7,30,0.00,,---,0.00,VWS V14.01,2013-05-18 20:22:00,
2013-05-18 15:27:00,79.7,45.6,27.11,ESE,116,6.3,7.2,30,0.00,,---,0.00,VWS V14.01,2013-05-18 20:27:00,
2013-05-18 15:32:00,79.5,45.4,27.08,SE,129,7.6,7.6,30,0.00,,---,0.00,VWS V14.01,2013-05-18 20:32:00,
2013-05-18 15:37:00,79.2,45.1,27.08,ESE,117,6.3,6.3,30,0.00,,---,0.00,VWS V14.01,2013-05-18 20:37:00,
2013-05-18 15:42:00,79.2,45.1,27.08,SE,127,5.4,5.4,30,0.00,,---,0.00,VWS V14.01,2013-05-18 20:42:00,
2013-05-18 15:47:00,79.0,44.9,27.08,ESE,121,6.3,6.3,30,0.00,,---,0.00,VWS V14.01,2013-05-18 20:47:00,
2013-05-18 15:52:00,79.2,45.1,27.08,SE,129,7.6,8.7,30,0.00,,---,0.00,VWS V14.01,2013-05-18 20:52:00,
2013-05-18 15:57:00,79.3,45.2,27.08,ESE,120,5.8,5.8,30,0.00,,---,0.00,VWS V14.01,2013-05-18 20:57:00,
2013-05-18 16:02:00,79.5,45.4,27.08,ESE,114,5.4,5.4,30,0.00,,---,0.00,VWS V14.01,2013-05-18 21:02:00,
2013-05-18 16:07:00,79.0,44.9,27.08,ESE,112,6.3,6.3,30,0.00,,---,0.00,VWS V14.01,2013-05-18 21:07:00,
2013-05-18 16:12:00,79.0,44.9,27.08,East,85,4.0,5.4,30,0.00,,---,0.00,VWS V14.01,2013-05-18 21:12:00,
2013-05-18 16:17:00,79.5,45.4,27.08,ENE,70,2.7,2.7,30,0.00,,---,0.00,VWS V14.01,2013-05-18 21:17:00,
2013-05-18 16:22:00,79.7,45.6,27.08,East,87,4.9,5.8,30,0.00,,---,0.00,VWS V14.01,2013-05-18 21:22:00,
2013-05-18 16:27:00,79.5,45.4,27.08,ESE,118,6.3,6.3,30,0.00,,---,0.00,VWS V14.01,2013-05-18 21:27:00,
2013-05-18 16:32:00,79.2,45.1,27.08,ESE,106,7.6,7.6,30,0.00,,---,0.00,VWS V14.01,2013-05-18 21:32:00,
2013-05-18 16:37:00,79.5,45.4,27.08,ESE,109,5.8,5.8,30,0.00,,---,0.00,VWS V14.01,2013-05-18 21:37:00,
2013-05-18 16:42:00,79.2,45.1,27.08,ESE,102,7.6,7.6,30,0.00,,---,0.00,VWS V14.01,2013-05-18 21:42:00,
2013-05-18 16:47:00,80.2,46.0,27.05,ESE,112,8.7,8.7,30,0.00,,---,0.00,VWS V14.01,2013-05-18 21:47:00,
2013-05-18 16:52:00,80.1,45.9,27.05,ESE,118,7.6,9.6,30,0.00,,---,0.00,VWS V14.01,2013-05-18 21:52:00,
2013-05-18 16:57:00,80.1,45.9,27.05,East,89,8.3,8.3,30,0.00,,---,0.00,VWS V14.01,2013-05-18 21:57:00,
2013-05-18 17:02:00,82.0,47.6,27.05,ESE,119,7.2,7.2,30,0.00,,---,0.00,VWS V14.01,2013-05-18 22:02:00,
2013-05-18 17:07:00,81.7,47.3,27.05,ESE,114,6.7,7.6,30,0.00,,---,0.00,VWS V14.01,2013-05-18 22:07:00,
2013-05-18 17:12:00,80.8,46.5,27.05,East,86,7.6,8.3,30,0.00,,---,0.00,VWS V14.01,2013-05-18 22:12:00,
2013-05-18 17:17:00,82.2,47.7,27.05,ENE,71,8.3,8.3,30,0.00,,---,0.00,VWS V14.01,2013-05-18 22:17:00,
2013-05-18 17:22:00,81.9,47.4,27.05,ESE,113,6.3,6.3,30,0.00,,---,0.00,VWS V14.01,2013-05-18 22:22:00,
2013-05-18 17:27:00,81.3,47.0,27.05,ENE,68,7.6,7.6,30,0.00,,---,0.00,VWS V14.01,2013-05-18 22:27:00,
2013-05-18 17:32:00,79.9,45.7,27.02,ESE,115,7.6,7.6,30,0.00,,---,0.00,VWS V14.01,2013-05-18 22:32:00,
2013-05-18 17:37:00,79.3,45.2,27.02,SE,126,8.1,8.7,30,0.00,,---,0.00,VWS V14.01,2013-05-18 22:37:00,
2013-05-18 17:42:00,79.3,45.2,27.02,ESE,120,8.7,8.7,30,0.00,,---,0.00,VWS V14.01,2013-05-18 22:42:00,
2013-05-18 17:47:00,79.0,44.9,27.02,ESE,107,5.8,7.6,30,0.00,,---,0.00,VWS V14.01,2013-05-18 22:47:00,
2013-05-18 17:52:00,78.8,44.8,27.02,ESE,111,8.7,8.7,30,0.00,,---,0.00,VWS V14.01,2013-05-18 22:52:00,
2013-05-18 17:57:00,78.8,44.8,27.02,ESE,111,8.7,8.7,30,0.00,,---,0.00,VWS V14.01,2013-05-18 22:57:00,
2013-05-18 18:02:00,79.2,45.1,27.02,ESE,115,5.8,5.8,30,0.00,,---,0.00,VWS V14.01,2013-05-18 23:02:00,
2013-05-18 18:07:00,79.0,44.9,27.02,ESE,117,6.3,6.3,30,0.00,,---,0.00,VWS V14.01,2013-05-18 23:07:00,
2013-05-18 18:12:00,79.0,44.9,27.02,ESE,121,7.2,7.6,30,0.00,,---,0.00,VWS V14.01,2013-05-18 23:12:00,
2013-05-18 18:17:00,78.8,44.8,27.05,ESE,122,6.3,6.3,30,0.00,,---,0.00,VWS V14.01,2013-05-18 23:17:00,
2013-05-18 18:22:00,78.6,45.5,27.05,SE,140,8.7,8.7,31,0.00,,---,0.00,VWS V14.01,2013-05-18 23:22:00,
2013-05-18 18:27:00,78.6,45.5,27.05,ESE,121,8.1,8.1,31,0.00,,---,0.00,VWS V14.01,2013-05-18 23:27:00,
2013-05-18 18:32:00,78.3,45.2,27.05,SE,124,5.8,6.7,31,0.00,,---,0.00,VWS V14.01,2013-05-18 23:32:00,
2013-05-18 18:37:00,78.3,45.2,27.05,ESE,122,6.3,6.7,31,0.00,,---,0.00,VWS V14.01,2013-05-18 23:37:00,
2013-05-18 18:42:00,78.3,45.2,27.05,SE,127,10.1,10.1,31,0.00,,---,0.00,VWS V14.01,2013-05-18 23:42:00,
2013-05-18 18:47:00,78.3,45.2,27.05,SE,137,10.1,10.1,31,0.00,,---,0.00,VWS V14.01,2013-05-18 23:47:00,
2013-05-18 18:52:00,77.7,44.7,27.05,SE,128,8.1,8.1,31,0.00,,---,0.00,VWS V14.01,2013-05-18 23:52:00,
2013-05-18 18:57:00,77.5,44.5,27.05,SE,134,9.6,9.6,31,0.00,,---,0.00,VWS V14.01,2013-05-18 23:57:00,
2013-05-18 19:02:00,77.2,44.2,27.05,SE,127,8.7,8.7,31,0.00,,---,0.00,VWS V14.01,2013-05-19 00:02:00,
2013-05-18 19:07:00,77.0,44.1,27.05,SE,125,8.3,8.3,31,0.00,,---,0.00,VWS V14.01,2013-05-19 00:07:00,
2013-05-18 19:12:00,76.8,43.9,27.05,SE,132,5.8,6.3,31,0.00,,---,0.00,VWS V14.01,2013-05-19 00:12:00,
2013-05-18 19:17:00,76.6,43.8,27.05,SE,129,10.1,10.1,31,0.00,,---,0.00,VWS V14.01,2013-05-19 00:17:00,
2013-05-18 19:22:00,76.6,43.8,27.05,SE,132,7.6,7.6,31,0.00,,---,0.00,VWS V14.01,2013-05-19 00:22:00,
2013-05-18 19:27:00,76.5,43.6,27.05,SE,140,8.7,11.0,31,0.00,,---,0.00,VWS V14.01,2013-05-19 00:27:00,
2013-05-18 19:32:00,77.0,44.1,27.05,SE,132,11.0,13.2,31,0.00,,---,0.00,VWS V14.01,2013-05-19 00:32:00,
2013-05-18 19:37:00,77.0,44.1,27.05,SE,131,17.0,21.0,31,0.00,,---,0.00,VWS V14.01,2013-05-19 00:37:00,
2013-05-18 19:42:00,68.7,38.5,27.05,SE,129,15.0,18.3,33,0.00,,---,0.00,VWS V14.01,2013-05-19 00:42:00,
2013-05-18 19:47:00,68.0,37.8,27.08,SE,135,8.3,11.0,33,0.00,,---,0.00,VWS V14.01,2013-05-19 00:47:00,
2013-05-18 19:52:00,67.8,37.7,27.08,SE,145,12.3,12.3,33,0.00,,---,0.00,VWS V14.01,2013-05-19 00:52:00,
2013-05-18 19:57:00,65.7,35.8,27.08,SE,131,13.2,18.3,33,0.00,,---,0.00,VWS V14.01,2013-05-19 00:57:00,
2013-05-18 20:02:00,66.6,36.6,27.05,SE,127,8.7,11.0,33,0.00,,---,0.00,VWS V14.01,2013-05-19 01:02:00,
2013-05-18 20:07:00,67.6,37.5,27.05,ESE,113,6.3,7.6,33,0.00,,---,0.00,VWS V14.01,2013-05-19 01:07:00,
2013-05-18 20:12:00,67.6,37.5,27.05,East,100,8.7,8.7,33,0.00,,---,0.00,VWS V14.01,2013-05-19 01:12:00,
2013-05-18 20:17:00,67.5,37.4,27.02,NNE,30,7.6,10.5,33,0.00,,---,0.00,VWS V14.01,2013-05-19 01:17:00,
2013-05-18 20:22:00,70.3,39.1,27.02,NNE,33,17.4,17.4,32,0.00,,---,0.00,VWS V14.01,2013-05-19 01:22:00,
2013-05-18 20:27:00,72.5,41.0,27.02,ENE,65,8.3,8.3,32,0.00,,---,0.00,VWS V14.01,2013-05-19 01:27:00,
2013-05-18 20:32:00,72.9,41.3,26.93,East,82,6.3,9.6,32,0.00,,---,0.00,VWS V14.01,2013-05-19 01:32:00,
2013-05-18 20:37:00,72.9,41.3,26.93,East,86,10.5,10.5,32,0.00,,---,0.00,VWS V14.01,2013-05-19 01:37:00,
2013-05-18 20:42:00,72.3,40.8,26.93,East,79,8.3,10.5,32,0.00,,---,0.00,VWS V14.01,2013-05-19 01:42:00,
2013-05-18 20:47:00,72.1,40.7,26.93,East,91,7.6,8.1,32,0.00,,---,0.00,VWS V14.01,2013-05-19 01:47:00,
2013-05-18 20:52:00,72.0,40.5,26.93,ESE,118,6.3,6.3,32,0.00,,---,0.00,VWS V14.01,2013-05-19 01:52:00,
2013-05-18 20:57:00,71.1,39.7,26.93,ESE,117,4.9,4.9,32,0.00,,---,0.00,VWS V14.01,2013-05-19 01:57:00,
2013-05-18 21:02:00,70.7,39.4,26.96,ESE,113,4.9,5.4,32,0.00,,---,0.00,VWS V14.01,2013-05-19 02:02:00,
2013-05-18 21:07:00,70.0,38.8,26.96,ESE,104,5.4,6.3,32,0.00,,---,0.00,VWS V14.01,2013-05-19 02:07:00,
2013-05-18 21:12:00,69.4,39.1,26.96,ESE,122,5.4,6.3,33,0.00,,---,0.00,VWS V14.01,2013-05-19 02:12:00,
2013-05-18 21:17:00,68.9,38.6,26.99,SE,128,4.9,5.4,33,0.00,,---,0.00,VWS V14.01,2013-05-19 02:17:00,
2013-05-18 21:22:00,68.4,38.2,26.99,ESE,122,4.0,4.9,33,0.00,,---,0.00,VWS V14.01,2013-05-19 02:22:00,
2013-05-18 21:27:00,68.0,37.8,26.99,WNW,288,5.4,8.3,33,0.00,,---,0.00,VWS V14.01,2013-05-19 02:27:00,
2013-05-18 21:32:00,67.5,37.4,26.99,WNW,292,11.4,11.4,33,0.00,,---,0.00,VWS V14.01,2013-05-19 02:32:00,
2013-05-18 21:37:00,67.5,37.4,26.99,West,279,5.4,10.5,33,0.00,,---,0.00,VWS V14.01,2013-05-19 02:37:00,
2013-05-18 21:42:00,68.2,38.0,27.05,West,279,7.6,7.6,33,0.00,,---,0.00,VWS V14.01,2013-05-19 02:42:00,
2013-05-18 21:47:00,64.9,35.2,27.08,WNW,283,3.1,5.8,33,0.00,,---,0.00,VWS V14.01,2013-05-19 02:47:00,
2013-05-18 21:52:00,63.7,34.8,27.08,WNW,292,10.5,11.0,34,0.00,,---,0.00,VWS V14.01,2013-05-19 02:52:00,
2013-05-18 21:57:00,62.8,34.0,27.08,North,357,10.1,11.9,34,0.00,,---,0.00,VWS V14.01,2013-05-19 02:57:00,
2013-05-18 22:02:00,62.4,33.7,27.08,NW,311,13.2,13.2,34,0.00,,---,0.00,VWS V14.01,2013-05-19 03:02:00,
2013-05-18 22:07:00,62.4,33.7,27.08,NNW,328,8.1,10.1,34,0.00,,---,0.00,VWS V14.01,2013-05-19 03:07:00,
2013-05-18 22:12:00,62.2,33.5,27.08,NNW,346,7.6,7.6,34,0.00,,---,0.00,VWS V14.01,2013-05-19 03:12:00,
2013-05-18 22:17:00,62.1,33.4,27.11,NW,320,5.4,8.3,34,0.00,,---,0.00,VWS V14.01,2013-05-19 03:17:00,
2013-05-18 22:22:00,61.9,33.2,27.11,North,0,5.8,5.8,34,0.00,,---,0.00,VWS V14.01,2013-05-19 03:22:00,
2013-05-18 22:27:00,61.7,33.1,27.11,North,349,11.0,11.0,34,0.00,,---,0.00,VWS V14.01,2013-05-19 03:27:00,
2013-05-18 22:32:00,61.3,32.8,27.08,NNW,327,8.7,8.7,34,0.00,,---,0.00,VWS V14.01,2013-05-19 03:32:00,
2013-05-18 22:37:00,61.3,32.8,27.08,North,357,5.8,5.8,34,0.00,,---,0.00,VWS V14.01,2013-05-19 03:37:00,
2013-05-18 22:42:00,61.2,32.6,27.08,NW,308,8.7,8.7,34,0.00,,---,0.00,VWS V14.01,2013-05-19 03:42:00,
2013-05-18 22:47:00,61.3,32.8,27.08,NNW,340,7.6,7.6,34,0.00,,---,0.00,VWS V14.01,2013-05-19 03:47:00,
2013-05-18 22:52:00,61.3,32.8,27.08,NW,322,8.3,8.3,34,0.00,,---,0.00,VWS V14.01,2013-05-19 03:52:00,
2013-05-18 22:57:00,61.3,32.8,27.08,NNW,331,5.4,5.4,34,0.00,,---,0.00,VWS V14.01,2013-05-19 03:57:00,
2013-05-18 23:01:00,61.5,32.9,27.08,North,353,5.4,5.4,34,0.00,,---,0.00,VWS V14.01,2013-05-19 04:01:00,
2013-05-18 23:02:00,61.5,32.9,27.08,NNW,341,5.4,5.8,34,0.00,,---,0.00,VWS V14.01,2013-05-19 04:02:00,
2013-05-18 23:07:00,61.7,33.1,27.08,North,353,5.4,6.3,34,0.00,,---,0.00,VWS V14.01,2013-05-19 04:07:00,
2013-05-18 23:12:00,61.7,33.1,27.08,North,357,4.0,4.0,34,0.00,,---,0.00,VWS V14.01,2013-05-19 04:12:00,
2013-05-18 23:17:00,60.8,32.3,27.08,NNE,18,4.0,4.0,34,0.00,,---,0.00,VWS V14.01,2013-05-19 04:17:00,
2013-05-18 23:22:00,61.3,32.8,27.08,NNW,348,3.1,4.0,34,0.00,,---,0.00,VWS V14.01,2013-05-19 04:22:00,
2013-05-18 23:27:00,61.2,32.6,27.08,North,9,4.0,4.0,34,0.00,,---,0.00,VWS V14.01,2013-05-19 04:27:00,
2013-05-18 23:32:00,59.4,31.7,27.11,SW,227,4.9,4.9,35,0.00,,---,0.00,VWS V14.01,2013-05-19 04:32:00,
2013-05-18 23:37:00,58.1,30.6,27.11,SW,222,3.1,3.1,35,0.00,,---,0.00,VWS V14.01,2013-05-19 04:37:00,
2013-05-18 23:42:00,57.4,30.0,27.11,NW,323,5.4,5.4,35,0.00,,---,0.00,VWS V14.01,2013-05-19 04:42:00,
2013-05-18 23:47:00,57.2,29.8,27.11,NNW,346,5.8,5.8,35,0.00,,---,0.00,VWS V14.01,2013-05-19 04:47:00,
2013-05-18 23:52:00,56.8,29.5,27.08,NNW,334,6.3,6.3,35,0.00,,---,0.00,VWS V14.01,2013-05-19 04:52:00,
2013-05-18 23:57:00,57.0,29.7,27.08,NNW,346,4.9,5.8,35,0.00,,---,0.00,VWS V14.01,2013-05-19 04:57:00,